Location: *
(49.7115°N, 15.0136°E)
Time: 05:24:40
(UTC+00:00)

Cosmos 489 Rocket - Pass Details

Date: 27 February 2020
Orbit: 953 x 983 km, 74.0° (Epoch: 31 March)

Event Time Altitude Azimuth Distance (km) Brightness Sun altitude
Rises 17:46:57 0° 190° (S) 3,672 7.6 -11.9°
Reaches altitude 10° 17:49:30 10° 187° (S) 2,726 6.9 -12.3°
Maximum altitude 17:55:43 63° 108° (ESE) 1,084 4.5 -13.3°
Drops below altitude 10° 18:01:57 10° 29° (NNE) 2,727 6.6 -14.3°
Sets 18:04:30 0° 26° (NNE) 3,674 7.3 -14.7°
